Time,TemperatureF,DewpointF,PressureIn,WindDirection,WindDirectionDegrees,WindSpeedMPH,WindSpeedGustMPH,Humidity,HourlyPrecipIn,Conditions,Clouds,dailyrainin,SoftwareType,DateUTC
2013-02-07 00:02:00,45.0,34.0,30.27,East,84,3.0,6.0,64,0.00,,,0.00,,2013-02-07 05:02:00,
2013-02-07 00:12:00,45.0,34.0,30.27,East,84,3.0,6.0,64,0.00,,,0.00,,2013-02-07 05:12:00,
2013-02-07 00:21:00,44.0,35.0,30.27,ESE,108,4.0,7.0,70,0.00,,,0.00,,2013-02-07 05:21:00,
2013-02-07 00:32:00,44.0,37.0,30.27,ESE,114,3.0,8.0,75,0.00,,,0.00,,2013-02-07 05:32:00,
2013-02-07 00:42:00,44.0,37.0,30.27,ESE,114,3.0,8.0,75,0.00,,,0.00,,2013-02-07 05:42:00,
2013-02-07 00:52:00,43.0,37.0,30.26,East,82,3.0,6.0,79,0.00,,,0.00,,2013-02-07 05:52:00,
2013-02-07 01:02:00,43.0,38.0,30.25,ESE,118,3.0,6.0,81,0.00,,,0.00,,2013-02-07 06:02:00,
2013-02-07 01:11:00,43.0,38.0,30.25,ESE,118,3.0,6.0,81,0.00,,,0.00,,2013-02-07 06:11:00,
2013-02-07 01:22:00,42.0,37.0,30.26,East,86,3.0,6.0,83,0.00,,,0.00,,2013-02-07 06:22:00,
2013-02-07 01:32:00,42.0,38.0,30.25,ESE,102,3.0,6.0,84,0.00,,,0.00,,2013-02-07 06:32:00,
2013-02-07 01:43:00,42.0,38.0,30.25,ESE,102,3.0,6.0,84,0.00,,,0.00,,2013-02-07 06:43:00,
2013-02-07 01:52:00,41.0,37.0,30.25,ENE,61,3.0,6.0,85,0.00,,,0.00,,2013-02-07 06:52:00,
2013-02-07 02:01:00,41.0,37.0,30.26,East,91,3.0,7.0,86,0.00,,,0.00,,2013-02-07 07:01:00,
2013-02-07 02:11:00,41.0,37.0,30.25,East,84,3.0,7.0,87,0.00,,,0.00,,2013-02-07 07:11:00,
2013-02-07 02:22:00,41.0,37.0,30.25,East,84,3.0,7.0,87,0.00,,,0.00,,2013-02-07 07:22:00,
2013-02-07 02:32:00,41.0,37.0,30.25,ESE,107,3.0,7.0,87,0.00,,,0.00,,2013-02-07 07:32:00,
2013-02-07 02:42:00,41.0,37.0,30.25,ESE,107,3.0,7.0,87,0.00,,,0.00,,2013-02-07 07:42:00,
2013-02-07 02:52:00,41.0,38.0,30.26,East,97,1.0,6.0,88,0.00,,,0.00,,2013-02-07 07:52:00,
2013-02-07 03:01:00,40.0,37.0,30.26,East,93,2.0,7.0,88,0.00,,,0.00,,2013-02-07 08:01:00,
2013-02-07 03:11:00,40.0,37.0,30.26,East,93,2.0,7.0,88,0.00,,,0.00,,2013-02-07 08:11:00,
2013-02-07 03:22:00,40.0,37.0,30.25,East,94,2.0,5.0,89,0.00,,,0.00,,2013-02-07 08:22:00,
2013-02-07 03:32:00,40.0,37.0,30.26,East,85,2.0,3.0,90,0.00,,,0.00,,2013-02-07 08:32:00,
2013-02-07 03:42:00,40.0,37.0,30.26,East,85,2.0,3.0,90,0.00,,,0.00,,2013-02-07 08:42:00,
2013-02-07 03:52:00,39.0,37.0,30.26,ENE,59,2.0,4.0,91,0.00,,,0.00,,2013-02-07 08:52:00,
2013-02-07 04:02:00,39.0,37.0,30.26,ENE,68,1.0,4.0,91,0.00,,,0.00,,2013-02-07 09:02:00,
2013-02-07 04:11:00,39.0,37.0,30.26,ENE,68,1.0,4.0,91,0.00,,,0.00,,2013-02-07 09:11:00,
2013-02-07 04:21:00,39.0,37.0,30.26,ENE,65,2.0,4.0,91,0.00,,,0.00,,2013-02-07 09:21:00,
2013-02-07 04:32:00,39.0,37.0,30.26,ENE,63,3.0,5.0,91,0.00,,,0.00,,2013-02-07 09:32:00,
2013-02-07 04:42:00,39.0,37.0,30.26,ENE,63,3.0,5.0,91,0.00,,,0.00,,2013-02-07 09:42:00,
2013-02-07 04:52:00,39.0,37.0,30.26,ENE,77,3.0,8.0,92,0.00,,,0.00,,2013-02-07 09:52:00,
2013-02-07 05:02:00,39.0,37.0,30.27,ENE,72,2.0,5.0,91,0.00,,,0.00,,2013-02-07 10:02:00,
2013-02-07 05:11:00,39.0,37.0,30.27,ENE,72,2.0,5.0,91,0.00,,,0.00,,2013-02-07 10:11:00,
2013-02-07 05:22:00,39.0,37.0,30.26,NE,56,4.0,8.0,91,0.00,,,0.00,,2013-02-07 10:22:00,
2013-02-07 05:32:00,39.0,37.0,30.26,East,82,2.0,5.0,91,0.00,,,0.00,,2013-02-07 10:32:00,
2013-02-07 05:42:00,39.0,37.0,30.26,East,82,2.0,5.0,91,0.00,,,0.00,,2013-02-07 10:42:00,
2013-02-07 05:52:00,39.0,37.0,30.27,East,79,3.0,7.0,91,0.00,,,0.00,,2013-02-07 10:52:00,
2013-02-07 06:01:00,39.0,36.0,30.28,East,83,3.0,6.0,90,0.00,,,0.00,,2013-02-07 11:01:00,
2013-02-07 06:11:00,39.0,36.0,30.28,East,83,3.0,6.0,90,0.00,,,0.00,,2013-02-07 11:11:00,
2013-02-07 06:23:00,39.0,36.0,30.28,ENE,75,3.0,8.0,90,0.00,,,0.00,,2013-02-07 11:23:00,
2013-02-07 06:32:00,39.0,36.0,30.29,NE,43,3.0,6.0,90,0.00,,,0.00,,2013-02-07 11:32:00,
2013-02-07 06:44:00,39.0,36.0,30.29,NE,43,3.0,6.0,90,0.00,,,0.00,,2013-02-07 11:44:00,
2013-02-07 06:53:00,38.0,35.0,30.30,ENE,57,3.0,8.0,90,0.00,,,0.00,,2013-02-07 11:53:00,
2013-02-07 07:02:00,38.0,35.0,30.29,NE,44,1.0,5.0,90,0.00,,,0.00,,2013-02-07 12:02:00,
2013-02-07 07:12:00,38.0,35.0,30.29,NE,44,1.0,5.0,90,0.00,,,0.00,,2013-02-07 12:12:00,
2013-02-07 07:22:00,38.0,35.0,30.29,NNE,17,3.0,7.0,90,0.00,,,0.00,,2013-02-07 12:22:00,
2013-02-07 07:33:00,38.0,36.0,30.30,NE,49,2.0,6.0,91,0.00,,,0.00,,2013-02-07 12:33:00,
2013-02-07 07:42:00,38.0,36.0,30.30,NE,49,2.0,6.0,91,0.00,,,0.00,,2013-02-07 12:42:00,
2013-02-07 07:53:00,38.0,36.0,30.30,North,356,4.0,7.0,91,0.00,,,0.00,,2013-02-07 12:53:00,
2013-02-07 08:03:00,38.0,36.0,30.30,NE,34,5.0,8.0,91,0.00,,,0.00,,2013-02-07 13:03:00,
2013-02-07 08:12:00,38.0,36.0,30.30,NE,34,5.0,8.0,91,0.00,,,0.00,,2013-02-07 13:12:00,
2013-02-07 08:22:00,38.0,36.0,30.30,ENE,63,5.0,9.0,91,0.00,,,0.00,,2013-02-07 13:22:00,
2013-02-07 08:32:00,39.0,37.0,30.30,NE,49,3.0,9.0,91,0.00,,,0.00,,2013-02-07 13:32:00,
2013-02-07 08:42:00,39.0,37.0,30.30,NE,49,3.0,9.0,91,0.00,,,0.00,,2013-02-07 13:42:00,
2013-02-07 08:52:00,39.0,36.0,30.31,ENE,66,4.0,15.0,90,0.00,,,0.00,,2013-02-07 13:52:00,
2013-02-07 09:01:00,40.0,37.0,30.31,NE,45,3.0,9.0,90,0.00,,,0.00,,2013-02-07 14:01:00,
2013-02-07 09:11:00,40.0,37.0,30.31,NE,45,3.0,9.0,90,0.00,,,0.00,,2013-02-07 14:11:00,
2013-02-07 09:22:00,40.0,37.0,30.30,ENE,75,3.0,10.0,89,0.00,,,0.00,,2013-02-07 14:22:00,
2013-02-07 09:32:00,40.0,37.0,30.29,ENE,63,5.0,8.0,88,0.00,,,0.00,,2013-02-07 14:32:00,
2013-02-07 09:42:00,40.0,37.0,30.29,ENE,63,5.0,8.0,88,0.00,,,0.00,,2013-02-07 14:42:00,
2013-02-07 09:52:00,41.0,38.0,30.29,East,87,4.0,7.0,88,0.00,,,0.00,,2013-02-07 14:52:00,
2013-02-07 10:02:00,41.0,37.0,30.29,NE,49,6.0,8.0,87,0.00,,,0.00,,2013-02-07 15:02:00,
2013-02-07 10:11:00,41.0,37.0,30.29,NE,49,6.0,8.0,87,0.00,,,0.00,,2013-02-07 15:11:00,
2013-02-07 10:22:00,42.0,38.0,30.29,NE,42,4.0,11.0,87,0.00,,,0.00,,2013-02-07 15:22:00,
2013-02-07 10:32:00,42.0,38.0,30.29,ENE,67,3.0,9.0,85,0.00,,,0.00,,2013-02-07 15:32:00,
2013-02-07 10:42:00,42.0,38.0,30.29,ENE,67,3.0,9.0,85,0.00,,,0.00,,2013-02-07 15:42:00,
2013-02-07 10:52:00,43.0,39.0,30.29,NE,47,2.0,8.0,85,0.00,,,0.00,,2013-02-07 15:52:00,
2013-02-07 11:01:00,43.0,38.0,30.29,ENE,69,3.0,9.0,84,0.00,,,0.00,,2013-02-07 16:01:00,
2013-02-07 11:11:00,43.0,38.0,30.29,ENE,69,3.0,9.0,84,0.00,,,0.00,,2013-02-07 16:11:00,
2013-02-07 11:22:00,44.0,39.0,30.28,NE,49,4.0,9.0,82,0.00,,,0.00,,2013-02-07 16:22:00,
2013-02-07 11:32:00,44.0,39.0,30.27,ENE,72,4.0,8.0,81,0.00,,,0.00,,2013-02-07 16:32:00,
2013-02-07 11:42:00,44.0,39.0,30.27,ENE,72,4.0,8.0,81,0.00,,,0.00,,2013-02-07 16:42:00,
2013-02-07 11:52:00,44.0,39.0,30.26,ENE,61,4.0,7.0,81,0.00,,,0.00,,2013-02-07 16:52:00,
2013-02-07 12:01:00,45.0,39.0,30.26,ENE,75,3.0,7.0,80,0.00,,,0.00,,2013-02-07 17:01:00,
2013-02-07 12:11:00,45.0,39.0,30.26,ENE,75,3.0,7.0,80,0.00,,,0.00,,2013-02-07 17:11:00,
2013-02-07 12:21:00,46.0,40.0,30.25,NE,51,5.0,7.0,79,0.00,,,0.00,,2013-02-07 17:21:00,
2013-02-07 12:32:00,46.0,40.0,30.24,NNE,25,5.0,7.0,78,0.00,,,0.00,,2013-02-07 17:32:00,
2013-02-07 12:43:00,46.0,40.0,30.24,NNE,25,5.0,7.0,78,0.00,,,0.00,,2013-02-07 17:43:00,
2013-02-07 12:52:00,46.0,40.0,30.24,NNE,25,5.0,10.0,78,0.00,,,0.00,,2013-02-07 17:52:00,
2013-02-07 13:02:00,47.0,40.0,30.23,ENE,75,3.0,10.0,77,0.00,,,0.00,,2013-02-07 18:02:00,
2013-02-07 13:12:00,47.0,40.0,30.23,ENE,75,3.0,10.0,77,0.00,,,0.00,,2013-02-07 18:12:00,
2013-02-07 13:23:00,47.0,40.0,30.23,NE,51,2.0,8.0,76,0.00,,,0.00,,2013-02-07 18:23:00,
2013-02-07 13:32:00,48.0,40.0,30.22,NE,53,3.0,8.0,74,0.00,,,0.00,,2013-02-07 18:32:00,
2013-02-07 13:42:00,48.0,40.0,30.22,NE,53,3.0,8.0,74,0.00,,,0.00,,2013-02-07 18:42:00,
2013-02-07 13:52:00,49.0,41.0,30.21,ENE,57,3.0,8.0,74,0.00,,,0.00,,2013-02-07 18:52:00,
2013-02-07 14:01:00,49.0,41.0,30.20,East,85,3.0,7.0,74,0.00,,,0.00,,2013-02-07 19:01:00,
2013-02-07 14:11:00,49.0,41.0,30.20,East,85,3.0,7.0,74,0.00,,,0.00,,2013-02-07 19:11:00,
2013-02-07 14:22:00,49.0,41.0,30.19,ENE,77,4.0,7.0,74,0.00,,,0.00,,2013-02-07 19:22:00,
2013-02-07 14:32:00,49.0,41.0,30.19,WNW,284,4.0,8.0,73,0.00,,,0.00,,2013-02-07 19:32:00,
2013-02-07 14:42:00,49.0,41.0,30.19,WNW,284,4.0,8.0,73,0.00,,,0.00,,2013-02-07 19:42:00,
2013-02-07 14:52:00,49.0,41.0,30.19,NE,34,4.0,10.0,74,0.00,,,0.00,,2013-02-07 19:52:00,
2013-02-07 15:01:00,49.0,41.0,30.18,ENE,75,4.0,8.0,74,0.00,,,0.00,,2013-02-07 20:01:00,
2013-02-07 15:11:00,49.0,41.0,30.18,ENE,75,4.0,8.0,74,0.00,,,0.00,,2013-02-07 20:11:00,
2013-02-07 15:22:00,49.0,41.0,30.18,NE,39,3.0,7.0,75,0.00,,,0.00,,2013-02-07 20:22:00,
2013-02-07 15:32:00,49.0,41.0,30.17,NNE,32,4.0,10.0,74,0.00,,,0.00,,2013-02-07 20:32:00,
2013-02-07 15:42:00,49.0,41.0,30.17,NNE,32,4.0,10.0,74,0.00,,,0.00,,2013-02-07 20:42:00,
2013-02-07 15:52:00,49.0,41.0,30.17,NNE,23,2.0,8.0,75,0.00,,,0.00,,2013-02-07 20:52:00,
2013-02-07 16:02:00,49.0,41.0,30.18,North,356,4.0,7.0,74,0.00,,,0.00,,2013-02-07 21:02:00,
2013-02-07 16:11:00,49.0,41.0,30.18,North,356,4.0,7.0,74,0.00,,,0.00,,2013-02-07 21:11:00,
2013-02-07 16:22:00,48.0,40.0,30.16,NNE,33,4.0,11.0,75,0.00,,,0.00,,2013-02-07 21:22:00,
2013-02-07 16:32:00,48.0,40.0,30.16,NNE,27,5.0,10.0,75,0.00,,,0.00,,2013-02-07 21:32:00,
2013-02-07 16:42:00,48.0,40.0,30.16,NNE,27,5.0,10.0,75,0.00,,,0.00,,2013-02-07 21:42:00,
2013-02-07 16:52:00,48.0,40.0,30.15,ENE,59,5.0,11.0,75,0.00,,,0.00,,2013-02-07 21:52:00,
2013-02-07 17:02:00,48.0,41.0,30.14,NE,50,4.0,8.0,76,0.00,,,0.00,,2013-02-07 22:02:00,
2013-02-07 17:11:00,48.0,41.0,30.14,NE,50,4.0,8.0,76,0.00,,,0.00,,2013-02-07 22:11:00,
2013-02-07 17:22:00,48.0,41.0,30.14,NE,34,4.0,8.0,76,0.00,,,0.00,,2013-02-07 22:22:00,
2013-02-07 17:32:00,48.0,41.0,30.14,NNE,25,4.0,9.0,76,0.00,,,0.00,,2013-02-07 22:32:00,
2013-02-07 17:42:00,48.0,41.0,30.14,NNE,25,4.0,9.0,76,0.00,,,0.00,,2013-02-07 22:42:00,
2013-02-07 17:52:00,48.0,41.0,30.14,NE,47,6.0,12.0,77,0.00,,,0.00,,2013-02-07 22:52:00,
2013-02-07 18:01:00,48.0,41.0,30.14,NE,53,5.0,8.0,77,0.00,,,0.00,,2013-02-07 23:01:00,
2013-02-07 18:11:00,48.0,41.0,30.14,NE,53,5.0,8.0,77,0.00,,,0.00,,2013-02-07 23:11:00,
2013-02-07 18:22:00,48.0,42.0,30.13,ENE,77,6.0,12.0,79,0.00,,,0.00,,2013-02-07 23:22:00,
2013-02-07 18:32:00,47.0,41.0,30.13,ENE,72,5.0,10.0,81,0.00,,,0.00,,2013-02-07 23:32:00,
2013-02-07 18:42:00,47.0,41.0,30.13,ENE,72,5.0,10.0,81,0.00,,,0.00,,2013-02-07 23:42:00,
2013-02-07 18:52:00,47.0,42.0,30.12,ENE,77,5.0,10.0,83,0.00,,,0.00,,2013-02-07 23:52:00,
2013-02-07 19:02:00,46.0,42.0,30.11,East,79,4.0,11.0,87,0.01,,,0.01,,2013-02-08 00:02:00,
2013-02-07 19:11:00,46.0,42.0,30.11,East,79,4.0,11.0,87,0.01,,,0.01,,2013-02-08 00:11:00,
2013-02-07 19:22:00,46.0,43.0,30.11,East,81,5.0,9.0,90,0.03,,,0.03,,2013-02-08 00:22:00,
2013-02-07 19:32:00,45.0,43.0,30.09,NNE,27,6.0,8.0,92,0.04,,,0.04,,2013-02-08 00:32:00,
2013-02-07 19:42:00,45.0,43.0,30.09,NNE,27,6.0,8.0,92,0.04,,,0.04,,2013-02-08 00:42:00,
2013-02-07 19:52:00,45.0,43.0,30.09,East,83,4.0,10.0,93,0.04,,,0.04,,2013-02-08 00:52:00,
2013-02-07 20:01:00,45.0,43.0,30.08,ENE,63,4.0,10.0,94,0.04,,,0.05,,2013-02-08 01:01:00,
2013-02-07 20:11:00,45.0,43.0,30.08,ENE,63,4.0,10.0,94,0.04,,,0.05,,2013-02-08 01:11:00,
2013-02-07 20:21:00,45.0,44.0,30.07,NE,49,4.0,11.0,95,0.03,,,0.06,,2013-02-08 01:21:00,
2013-02-07 20:32:00,45.0,44.0,30.07,ENE,71,3.0,10.0,95,0.02,,,0.06,,2013-02-08 01:32:00,
2013-02-07 20:42:00,45.0,44.0,30.07,ENE,71,3.0,10.0,95,0.02,,,0.06,,2013-02-08 01:42:00,
2013-02-07 20:52:00,45.0,44.0,30.06,ENE,67,5.0,10.0,96,0.03,,,0.07,,2013-02-08 01:52:00,
2013-02-07 21:01:00,45.0,44.0,30.06,NE,49,5.0,9.0,96,0.02,,,0.07,,2013-02-08 02:01:00,
2013-02-07 21:11:00,45.0,44.0,30.06,NE,49,5.0,9.0,96,0.02,,,0.07,,2013-02-08 02:11:00,
2013-02-07 21:21:00,44.0,43.0,30.06,ESE,109,5.0,12.0,96,0.03,,,0.09,,2013-02-08 02:21:00,
2013-02-07 21:32:00,44.0,43.0,30.05,ENE,72,3.0,9.0,96,0.05,,,0.11,,2013-02-08 02:32:00,
2013-02-07 21:42:00,44.0,43.0,30.05,ENE,72,3.0,9.0,96,0.05,,,0.11,,2013-02-08 02:42:00,
2013-02-07 21:52:00,44.0,43.0,30.04,ENE,57,5.0,9.0,96,0.06,,,0.13,,2013-02-08 02:52:00,
2013-02-07 22:02:00,44.0,43.0,30.05,NE,53,4.0,10.0,96,0.08,,,0.15,,2013-02-08 03:02:00,
2013-02-07 22:12:00,44.0,43.0,30.05,NE,53,4.0,10.0,96,0.08,,,0.15,,2013-02-08 03:12:00,
2013-02-07 22:22:00,44.0,43.0,30.03,NE,53,5.0,8.0,97,0.09,,,0.18,,2013-02-08 03:22:00,
2013-02-07 22:32:00,44.0,43.0,30.02,ENE,78,4.0,10.0,97,0.09,,,0.20,,2013-02-08 03:32:00,
2013-02-07 22:42:00,44.0,43.0,30.02,ENE,78,4.0,10.0,97,0.09,,,0.20,,2013-02-08 03:42:00,
2013-02-07 22:52:00,44.0,43.0,30.01,East,86,4.0,8.0,97,0.08,,,0.21,,2013-02-08 03:52:00,
2013-02-07 23:02:00,44.0,43.0,29.99,East,82,5.0,12.0,97,0.06,,,0.21,,2013-02-08 04:02:00,
2013-02-07 23:11:00,44.0,43.0,29.99,East,82,5.0,12.0,97,0.06,,,0.21,,2013-02-08 04:11:00,
2013-02-07 23:21:00,44.0,43.0,29.98,NE,50,4.0,10.0,97,0.04,,,0.22,,2013-02-08 04:21:00,
2013-02-07 23:32:00,45.0,44.0,29.97,ENE,67,7.0,10.0,97,0.04,,,0.24,,2013-02-08 04:32:00,
2013-02-07 23:42:00,45.0,44.0,29.97,ENE,67,7.0,10.0,97,0.04,,,0.24,,2013-02-08 04:42:00,
2013-02-07 23:52:00,45.0,44.0,29.96,NE,43,6.0,10.0,97,0.06,,,0.27,,2013-02-08 04:52:00,